Location: Fort Wayne
(41.1310°N, 85.1290°W)
Time: 09:45:22
(UTC-04:00)

Gbstr 26 Del rocket - Visible Passes

Search period start: 22 August 2014 00:00
Search period end: 01 September 2014 00:00
Orbit: 494 x 1278 km, 51.8° (Epoch: 21 August)

Date Brightness Start Highest point End Pass type
(mag) Time Alt. Az. Time Alt. Az. Time Alt. Az.
27 Aug 6.8 05:57:37 10° SE 05:58:58 11° ESE 06:00:22 10° ESE visible
28 Aug 6.4 05:53:00 10° SSE 05:56:19 15° ESE 05:59:54 10° E visible
29 Aug 6.1 05:49:26 10° SSE 05:53:41 19° ESE 05:58:26 10° ENE visible
30 Aug 5.9 05:46:15 10° S 05:51:05 25° ESE 05:56:38 10° ENE visible
31 Aug 5.5 05:43:18 10° S 05:48:31 31° SE 05:54:40 10° ENE visible
